Theta_e
337 339 343 346 347 344 346 346 345 346 346 345 345 343 343 342 342 341 339 339 341 346 345 346 345 347 347 347 348 348 347 347 347 347 347 346 347 346 346 345 347 347 346 346 346 346 346 345 344 343 342 342 341 340 339 340 339 340 339 338 340 341 341 341 342 339 339 339 341 342 341 341 340 338 337 335 335 334 336 334 335 332 332 334 335
337 340 344 345 345 342 342 343 342 342 344 346 344 343 342 340 340 341 339 338 339 347 346 346 347 346 347 347 348 348 347 347 346 347 346 346 346 347 347 346 346 348 347 347 346 347 345 345 343 343 341 341 341 340 340 339 337 337 337 338 339 339 339 339 340 340 339 338 338 339 338 339 338 339 339 337 337 336 336 335 335 331 331 335 335
339 342 344 345 345 343 343 343 341 341 340 340 341 342 341 341 340 340 339 338 340 345 347 346 347 346 347 347 347 347 347 347 347 346 346 347 347 346 346 346 346 347 346 346 345 345 344 344 342 342 342 341 339 338 339 338 337 336 336 338 338 338 339 338 338 339 339 337 337 337 336 335 336 336 336 337 337 336 336 335 335 335 332 335 334
339 342 343 344 345 342 341 342 340 340 340 340 341 341 340 339 341 338 338 339 341 345 348 347 347 347 347 347 347 347 347 346 347 346 346 347 347 346 346 346 346 346 345 346 346 344 343 342 342 341 340 339 339 339 338 337 337 337 336 336 337 338 337 337 337 336 337 336 337 335 333 334 334 335 335 335 336 336 336 335 335 336 335 335 335
340 342 342 343 341 344 344 341 340 340 340 341 339 338 339 339 341 339 338 340 342 347 347 347 347 346 347 346 346 347 346 346 346 347 347 347 347 347 347 346 346 345 345 345 345 344 343 342 341 340 340 339 339 338 338 337 337 337 336 337 337 336 336 336 336 336 335 334 337 335 331 331 333 335 336 334 335 334 336 335 335 333 333 334 335
341 342 341 341 340 341 344 341 340 340 339 339 339 338 338 339 339 338 339 340 342 346 346 347 347 347 347 346 346 347 346 346 346 347 346 345 345 346 347 346 345 345 345 345 344 342 342 341 341 340 339 338 338 337 337 337 336 336 336 336 336 336 335 335 335 334 334 333 336 332 331 332 332 332 335 335 335 335 335 335 336 335 334 334 333
341 342 341 341 341 341 343 342 340 339 339 339 338 339 338 339 339 339 340 341 344 345 346 347 347 347 346 346 346 346 346 346 346 346 346 347 346 346 345 345 345 345 344 345 344 344 341 340 339 339 338 337 337 337 337 336 335 336 335 335 335 335 335 335 335 334 336 333 331 331 330 332 332 332 335 336 335 334 334 335 334 334 334 333 333
343 342 341 342 341 341 341 341 341 340 339 339 339 339 339 339 340 339 339 343 345 344 347 347 346 347 346 346 346 346 346 346 346 346 346 346 345 345 345 345 344 343 343 344 344 343 342 340 339 338 337 337 337 336 336 335 335 335 335 335 335 335 335 334 333 333 336 330 331 330 331 331 331 331 334 335 335 335 333 334 334 334 334 334 334
340 341 341 342 342 340 341 342 340 340 339 338 339 339 338 337 340 339 339 344 345 345 346 346 347 347 346 346 346 346 346 346 347 346 346 345 345 345 345 344 344 344 343 343 343 343 341 340 338 338 338 337 336 336 336 336 336 335 335 335 335 334 334 333 332 334 331 329 329 329 331 331 331 332 333 333 334 332 333 332 333 333 332 335 333
338 339 341 341 342 339 341 342 340 340 339 339 339 339 338 339 340 340 341 345 347 347 347 347 347 346 346 346 346 346 346 346 346 346 346 345 345 344 345 343 343 343 342 342 342 342 342 339 338 338 337 337 336 336 335 335 334 334 335 335 334 333 333 332 331 334 329 331 331 331 333 339 331 331 333 333 333 333 332 334 334 334 333 333 333
338 339 341 341 342 338 341 342 342 340 340 340 339 340 339 339 340 340 341 347 347 346 346 346 346 346 346 347 346 346 346 345 346 345 345 345 344 344 344 344 343 342 342 342 342 341 341 340 338 337 336 336 336 336 335 335 334 334 334 334 334 334 332 331 335 331 332 331 331 332 333 336 333 334 334 334 335 334 336 335 334 333 333 332 332
337 340 341 340 341 338 340 341 343 340 341 341 340 340 340 339 341 343 343 343 345 345 345 346 346 345 345 345 345 345 346 345 346 345 345 345 344 344 344 343 343 342 341 341 341 341 340 340 339 338 336 335 335 335 335 334 334 334 334 334 334 333 332 332 332 331 333 331 331 331 331 331 332 333 335 334 334 333 332 332 332 331 332 331 333
337 337 340 342 342 338 339 341 343 341 342 341 341 340 340 340 341 343 345 343 344 345 345 345 345 345 345 345 345 345 345 345 345 345 345 345 344 344 344 343 342 341 341 340 340 340 340 340 340 338 337 336 335 335 335 334 334 334 333 333 333 332 331 333 330 331 331 332 331 332 332 332 332 332 332 333 332 331 331 331 331 331 334 335 334
336 337 339 340 341 341 337 339 341 341 343 343 343 342 341 341 342 344 345 344 344 346 345 345 345 345 346 345 345 345 345 345 344 345 345 344 344 343 343 342 341 341 340 340 339 339 339 339 339 338 337 336 335 335 335 334 334 333 333 333 333 331 330 331 332 332 332 332 333 332 333 332 333 332 332 332 332 331 331 330 329 335 334 335 335
336 338 339 341 340 341 340 337 339 339 341 344 344 344 343 342 344 344 344 344 344 345 345 345 345 346 345 345 344 345 344 344 344 344 344 344 344 343 342 342 341 340 340 339 339 339 339 339 339 338 338 337 336 335 335 334 334 334 333 332 331 330 328 329 330 332 331 331 332 332 333 333 333 333 332 332 331 331 331 333 335 334 335 334 334
337 338 339 339 341 342 339 341 336 337 338 340 342 343 344 344 345 344 344 344 344 344 344 344 345 346 345 345 345 344 344 344 345 345 344 344 343 342 341 341 340 339 338 338 338 338 339 339 339 338 338 338 336 335 335 334 335 335 333 331 330 329 327 329 332 332 331 331 332 333 332 333 333 331 331 332 331 332 336 335 335 334 334 335 334
336 337 337 338 341 340 339 341 339 334 335 337 338 340 342 344 345 345 345 345 345 345 345 345 345 345 344 345 345 345 345 344 344 344 342 343 343 343 342 340 340 339 338 338 338 338 339 339 339 338 338 338 336 336 335 335 335 334 332 331 330 327 327 327 331 332 331 333 333 333 333 334 332 331 332 333 332 334 335 335 335 334 334 334 334
337 337 336 338 340 340 339 341 342 342 341 339 335 336 339 342 342 343 344 344 344 344 344 344 344 344 343 342 343 344 344 344 343 342 341 342 342 340 339 340 339 339 338 337 337 338 338 338 338 338 338 338 338 336 336 336 335 333 331 330 328 325 326 325 331 331 332 332 332 334 335 336 333 333 335 335 334 334 334 335 334 334 334 334 334
336 335 335 337 337 339 339 340 342 341 340 341 342 344 335 337 339 340 340 341 341 340 340 340 341 340 339 339 340 341 341 340 339 339 339 338 338 335 335 338 339 338 337 337 336 336 337 337 337 337 338 338 338 337 337 335 334 332 330 328 326 325 321 328 330 331 331 330 331 332 335 338 334 334 334 334 334 334 334 334 334 334 334 334 333
335 335 333 336 338 338 339 339 340 340 340 340 341 343 336 333 336 336 337 337 338 337 336 336 335 334 333 334 335 340 338 340 335 340 335 335 335 335 332 337 339 338 337 336 336 335 336 336 336 336 336 337 337 337 336 334 332 331 328 326 325 322 331 330 330 329 330 329 331 331 334 337 333 334 334 333 333 333 332 333 333 333 334 334 333
332 333 333 333 337 337 337 338 339 339 340 340 340 341 341 333 334 333 334 333 334 334 333 330 329 328 330 329 332 343 342 342 342 342 332 341 329 327 330 335 338 338 337 336 335 334 334 335 335 335 335 335 334 332 332 332 331 329 327 325 322 329 331 330 330 329 330 330 330 333 330 334 335 333 332 331 332 333 331 331 333 333 333 333 333
329 330 333 333 333 336 337 337 337 338 339 339 340 341 342 338 343 343 342 339 333 331 338 343 340 343 330 338 342 341 341 341 341 339 341 340 334 326 328 332 335 336 337 336 335 334 333 333 334 334 334 332 329 332 330 326 326 328 325 321 329 330 331 330 330 329 329 330 329 333 330 332 334 333 331 330 331 331 330 331 332 332 332 332 332
327 328 330 332 333 334 336 335 336 337 338 339 340 340 340 340 341 342 342 336 340 342 342 342 342 341 342 342 339 341 341 340 340 339 340 330 338 325 327 330 333 333 334 335 335 335 333 332 334 331 327 324 331 333 331 331 330 321 321 328 329 330 330 330 330 329 329 330 330 327 329 330 331 331 330 330 330 331 331 330 331 331 332 331 331
328 329 329 331 333 333 334 335 336 337 336 336 338 338 337 338 338 339 341 342 342 342 342 341 341 341 341 340 339 340 341 340 335 331 333 340 336 323 325 327 329 330 330 334 333 333 332 329 328 324 326 328 331 330 330 331 331 330 330 329 330 330 330 330 329 330 329 329 329 324 327 329 329 330 332 331 330 330 330 330 331 331 330 331 331
330 331 330 330 331 332 334 334 336 337 336 335 336 336 337 337 337 338 339 341 341 340 340 341 340 340 340 339 339 340 341 340 340 339 339 338 338 339 338 339 339 338 328 337 336 337 333 332 332 330 331 330 330 330 330 330 330 330 330 329 329 330 330 330 329 329 329 329 329 323 324 327 329 330 332 331 330 330 330 330 330 330 330 330 330
330 328 329 330 331 332 333 333 334 335 336 335 335 335 335 335 336 336 337 340 340 339 339 339 339 339 339 338 339 339 339 339 338 338 338 337 336 336 336 336 336 336 336 335 334 334 333 332 331 331 331 330 330 330 330 329 329 329 329 330 329 329 329 329 329 329 329 329 330 322 323 326 327 329 329 331 331 330 330 330 329 330 329 329 330
329 328 330 330 331 332 333 333 332 333 334 336 335 335 335 335 335 335 335 336 339 338 336 338 338 339 339 338 337 337 337 337 337 336 337 336 336 336 335 336 335 334 335 334 333 333 332 331 330 331 331 330 330 329 329 329 330 330 330 330 329 329 330 329 329 328 329 329 327 321 323 326 328 330 331 332 332 331 330 330 330 330 329 329 330
329 328 330 331 331 331 332 332 332 332 333 335 334 333 334 334 334 334 334 333 336 338 337 336 337 338 338 337 336 336 335 335 335 335 335 336 335 336 335 335 335 334 335 334 333 332 331 331 331 331 330 330 329 329 328 328 328 329 329 330 330 330 330 330 330 330 330 330 330 325 321 323 325 327 329 329 330 331 330 330 331 330 330 329 329
328 329 330 330 331 331 332 331 331 331 331 332 333 332 333 332 332 333 333 330 334 336 337 338 336 336 337 337 336 336 335 334 334 334 334 334 334 334 334 334 334 334 334 333 333 332 331 331 329 330 330 329 329 329 328 329 329 329 328 329 330 329 330 330 330 330 330 329 330 327 320 320 323 325 328 329 330 330 330 330 330 330 330 329 329
329 330 330 331 331 331 331 331 332 332 332 331 331 332 332 332 332 331 332 332 333 333 336 337 337 336 335 336 335 335 335 333 333 334 333 333 333 333 333 333 333 333 333 331 332 331 331 330 330 329 330 329 329 328 328 328 328 328 328 328 329 329 330 329 329 329 330 330 330 330 318 318 320 323 326 328 329 331 330 329 329 330 330 329 328
329 329 330 331 332 331 331 332 332 333 333 331 331 331 331 331 331 331 331 331 332 331 333 334 336 336 335 335 335 334 334 334 334 333 332 332 332 332 332 332 332 333 332 331 332 331 331 330 329 329 329 329 329 329 328 327 328 328 328 328 329 330 330 329 329 330 329 329 330 330 331 317 319 321 325 328 329 330 330 329 328 329 329 328 328
328 329 330 332 331 331 331 332 332 332 332 332 332 331 331 331 331 331 331 331 332 331 331 333 333 335 335 334 334 334 333 334 334 334 332 332 332 331 331 331 330 331 331 331 331 330 329 329 329 329 330 329 328 329 329 327 327 327 328 329 329 329 329 329 329 329 329 329 330 330 329 329 318 318 321 325 327 329 330 329 327 328 328 328 328
329 330 330 331 330 331 331 331 332 332 332 331 331 331 331 331 331 331 331 331 332 331 330 330 332 334 335 335 334 334 332 332 333 333 332 331 331 331 330 330 330 331 331 330 329 329 327 326 325 325 325 327 327 327 328 328 327 327 328 328 328 328 329 329 329 329 329 329 329 329 329 329 329 319 317 319 324 328 329 330 327 328 329 330 330
329 329 330 329 330 331 331 331 331 331 331 331 331 331 331 331 331 331 331 331 331 331 330 329 330 331 333 334 334 333 332 332 332 332 332 331 331 330 330 329 330 330 330 329 328 327 325 325 325 324 321 323 324 326 326 326 327 327 328 328 328 327 328 328 328 328 329 329 329 329 329 328 327 328 329 318 318 323 327 330 330 328 328 329 329
330 330 329 330 329 330 330 330 330 331 330 331 331 331 331 331 331 331 331 331 330 330 330 330 329 330 331 332 333 333 331 332 332 331 331 330 330 329 329 329 330 330 329 328 327 327 326 324 325 323 324 323 323 324 325 325 325 326 327 328 328 328 328 328 328 328 328 329 329 329 329 328 327 328 329 329 320 318 323 327 330 329 327 329 330
330 330 330 329 329 330 330 330 330 330 330 330 331 331 330 331 331 327 330 331 330 329 329 330 330 330 329 330 332 332 332 332 331 331 330 330 329 329 329 329 329 329 328 328 327 325 325 324 324 324 322 322 322 322 323 322 323 323 325 327 327 327 327 328 328 328 328 329 328 329 329 328 328 328 324 328 328 326 320 323 326 330 330 328 329
331 331 330 329 328 329 329 330 330 330 330 330 331 331 331 330 330 331 331 331 330 329 329 330 330 329 329 329 329 329 331 331 331 330 329 329 330 329 329 329 329 328 328 327 326 325 325 323 323 323 323 322 322 322 322 322 321 322 323 324 326 326 326 326 327 328 329 328 328 328 328 328 328 319 327 327 327 328 322 318 322 325 326 328 330
331 330 331 330 328 328 329 329 330 331 330 330 330 330 330 330 330 330 330 330 330 330 330 330 329 329 329 328 329 329 328 329 329 329 329 328 329 329 329 329 329 327 327 326 325 325 325 324 322 323 322 321 321 322 321 321 321 321 322 323 324 325 325 326 327 324 326 326 327 327 328 328 328 329 328 328 328 327 328 323 318 319 320 322 326
330 330 330 330 330 329 328 328 328 330 330 330 330 330 330 329 330 330 330 329 330 330 330 329 329 329 328 328 328 328 328 329 329 328 327 326 326 327 327 328 329 326 325 324 324 324 323 323 322 322 322 322 321 322 322 323 322 321 322 323 325 324 324 325 325 326 326 327 327 326 329 328 328 328 328 328 328 328 328 328 328 326 325 318 322
330 330 329 330 329 329 329 328 327 328 330 330 330 328 328 327 326 327 327 327 328 328 329 328 329 328 328 328 328 328 328 328 328 328 327 326 326 326 327 327 327 326 324 322 322 322 321 321 321 321 321 321 321 321 322 321 321 321 320 322 323 324 324 323 323 324 325 326 327 327 326 327 327 328 328 328 327 328 327 328 327 327 327 323 318
329 329 329 329 329 329 329 327 328 328 328 328 328 328 326 325 326 326 325 327 327 328 328 328 328 328 328 328 328 327 328 327 327 327 326 324 325 326 326 326 327 326 324 323 324 323 323 322 321 321 320 319 319 320 320 321 318 317 320 319 320 322 322 322 322 323 324 325 326 326 326 326 326 327 327 327 327 327 327 327 327 327 327 327 324
326 328 328 329 329 329 328 329 329 328 327 328 328 328 328 327 326 326 327 327 327 326 326 327 327 328 328 328 328 328 328 327 327 327 326 326 324 324 325 325 326 325 324 324 324 321 323 322 321 320 320 318 318 320 319 318 314 314 315 316 319 322 323 322 322 323 324 325 326 326 326 325 325 326 326 326 326 326 326 326 326 326 326 327 327
324 327 328 329 329 329 329 329 329 328 328 328 328 327 329 329 329 329 328 328 330 330 330 329 329 328 328 328 328 328 328 327 327 326 325 325 325 324 324 325 326 325 324 323 323 323 323 322 322 319 318 319 318 321 319 319 317 318 318 315 313 314 319 320 322 323 324 325 325 325 325 324 325 326 326 325 325 325 325 325 325 325 326 326 326
323 325 326 327 328 328 329 329 329 329 329 328 326 329 329 330 331 331 331 330 329 330 329 329 329 328 327 328 328 328 328 327 327 327 326 325 325 324 325 324 324 326 324 323 322 322 322 322 322 320 319 316 316 317 320 319 319 318 312 312 314 313 309 312 317 320 322 322 322 322 322 322 323 324 324 323 323 324 324 324 324 324 325 325 325
321 322 324 326 326 328 329 330 330 329 329 328 327 328 328 328 329 329 330 329 328 328 327 326 327 327 327 327 327 328 327 327 327 327 326 325 325 325 325 325 324 325 325 324 323 323 323 323 323 321 319 317 316 317 318 319 319 322 318 314 312 309 310 314 313 315 317 316 318 320 320 321 321 322 322 322 323 323 323 323 323 324 324 324 324
319 320 323 325 326 327 329 330 330 330 329 329 328 327 326 326 325 324 323 323 322 323 322 323 325 325 325 328 328 329 328 327 327 327 327 325 325 325 325 325 325 325 325 324 324 323 323 322 322 321 320 320 318 318 317 318 319 320 321 321 319 313 314 314 310 308 317 317 320 316 317 317 319 320 321 321 321 322 322 321 322 322 323 323 323
321 321 322 323 325 327 328 329 330 329 330 330 329 326 326 325 325 324 325 324 322 324 326 327 327 328 329 328 328 329 329 328 327 327 327 326 325 325 325 325 325 325 324 324 323 323 323 323 322 322 321 320 320 317 318 318 316 318 320 320 320 320 320 316 311 313 310 316 315 315 315 315 316 316 318 319 320 321 321 320 321 321 321 322 322
323 322 321 321 322 324 327 328 329 329 330 330 329 327 325 325 325 325 324 324 324 325 326 327 328 329 328 328 329 328 329 328 327 327 327 326 326 325 325 325 324 325 325 324 323 324 324 324 323 323 322 321 320 318 318 319 316 314 318 318 318 318 319 318 318 314 313 311 314 317 317 318 316 315 316 317 319 320 321 320 320 321 321 321 321
324 323 321 320 321 323 325 327 327 328 328 330 328 328 326 326 326 325 324 324 326 326 327 328 327 328 327 328 328 328 328 328 327 327 327 327 325 325 325 324 324 325 324 324 324 324 324 323 323 322 321 321 320 320 320 319 319 317 316 315 317 316 316 317 316 316 311 310 311 313 315 313 315 316 315 316 318 320 320 320 320 321 321 321 321
324 325 323 322 321 322 323 324 325 327 328 329 328 328 327 325 325 325 324 325 325 325 326 326 326 326 325 326 327 327 327 327 327 327 327 327 326 325 325 324 324 324 322 324 324 324 324 324 324 323 322 321 321 321 320 321 321 321 320 317 314 314 314 314 314 313 313 312 309 312 315 315 312 315 316 315 316 319 320 320 321 320 320 320 320
324 324 322 321 321 320 321 321 323 325 327 328 328 327 327 326 325 325 325 325 325 325 324 324 324 325 324 324 325 326 327 327 327 327 327 327 326 325 325 324 325 323 323 324 324 323 324 324 324 324 323 322 321 321 319 320 321 321 320 319 316 315 313 311 312 312 311 309 309 309 312 314 315 315 318 317 317 318 319 319 319 320 320 320 320
Wind_Speed
9 9 9 6 5 5 10 8 8 9 9 9 8 7 7 7 7 8 6 5 8 10 8 9 9 9 9 9 9 10 10 11 11 11 12 13 14 14 14 14 14 15 15 16 16 17 16 16 15 15 15 15 16 15 14 15 15 15 16 17 16 17 16 16 15 15 17 19 19 18 17 18 18 17 18 18 16 11 8 12 14 13 12 14 17
13 10 8 8 2 5 7 6 6 7 7 10 8 6 8 8 6 8 6 4 3 12 9 8 8 9 9 9 9 10 10 10 11 11 12 13 13 14 13 14 14 15 15 16 16 16 16 15 15 15 15 15 15 15 15 15 15 15 15 15 15 16 16 16 15 15 14 18 18 19 19 18 18 17 17 16 16 16 14 16 14 12 11 17 16
13 10 8 8 4 5 6 8 6 6 3 5 5 6 7 7 7 7 5 2 4 9 11 8 8 8 8 8 9 9 10 10 10 11 13 11 14 14 14 14 12 14 15 16 16 17 16 16 15 15 15 15 14 14 14 14 14 14 15 15 15 15 15 15 15 14 14 16 18 17 17 18 17 17 17 17 18 17 13 15 15 14 12 15 12
13 10 9 8 4 1 1 5 6 7 6 6 7 6 5 4 9 7 5 5 6 8 9 8 7 7 8 9 9 10 10 10 11 13 13 13 12 14 14 13 14 15 15 16 16 16 16 15 15 15 15 15 15 15 15 15 15 15 15 15 15 15 15 15 14 14 11 9 6 11 10 12 13 16 16 16 17 17 13 16 18 16 16 15 15
12 10 9 9 9 5 2 7 6 6 6 9 6 5 7 4 9 7 7 8 7 9 7 8 8 8 8 9 9 9 10 10 12 13 13 13 12 14 14 13 14 14 15 16 17 16 15 15 15 15 15 15 15 16 15 15 15 15 16 15 15 15 14 13 13 12 9 4 3 9 10 12 11 16 16 17 14 13 14 15 15 15 14 15 15
11 11 10 9 8 9 3 9 8 9 8 8 7 7 8 5 7 7 8 7 8 6 7 8 7 8 9 9 10 10 10 11 12 12 12 13 12 13 14 13 14 14 14 15 15 14 15 15 15 14 15 14 14 15 15 15 15 15 15 15 14 14 13 13 11 7 4 2 8 8 10 10 10 11 16 15 14 11 16 16 16 15 15 15 15
13 10 9 9 8 9 6 8 9 9 8 9 9 8 8 8 7 9 9 8 7 5 8 7 8 8 9 9 10 11 11 12 13 13 13 12 12 13 13 13 13 14 14 14 15 15 14 14 14 14 14 13 13 13 14 14 14 15 15 14 14 13 12 10 9 7 8 3 8 8 9 10 10 8 14 14 14 14 14 15 16 16 15 15 15
10 8 9 9 8 10 6 7 8 9 8 9 9 8 8 7 9 8 8 9 7 7 9 7 8 9 9 9 10 11 12 13 14 13 13 13 13 13 13 13 13 13 13 13 14 15 14 13 13 13 13 13 12 12 13 13 14 14 14 14 13 12 11 9 7 6 5 8 8 9 9 10 10 9 13 13 14 13 14 14 14 14 14 14 11
10 9 8 8 8 11 7 7 8 9 8 8 8 9 7 4 8 8 6 9 8 7 8 8 6 8 9 9 10 11 11 12 13 13 13 13 13 13 13 12 12 12 12 13 13 14 14 13 13 13 13 13 12 12 13 13 13 13 13 13 12 11 9 7 6 3 7 7 8 8 9 9 9 9 11 13 13 12 12 10 11 13 13 12 14
10 9 7 6 7 10 7 6 9 10 9 9 8 8 8 6 9 8 7 7 8 8 8 7 7 8 9 9 10 10 11 11 12 13 12 12 12 13 12 12 12 12 12 12 12 13 13 13 12 12 12 13 13 13 13 13 12 12 12 12 11 9 8 5 0 5 8 10 10 9 7 6 9 9 11 12 14 13 12 9 9 8 9 12 12
10 8 7 6 9 8 6 7 7 10 10 10 9 9 8 7 7 6 4 10 8 8 8 7 7 8 10 9 9 11 10 10 11 12 12 12 12 12 12 12 12 11 11 11 11 11 12 12 12 12 12 12 12 13 12 12 12 12 11 10 10 8 5 2 4 8 8 8 8 8 7 6 9 8 11 11 10 8 4 6 7 8 8 9 9
11 9 8 6 8 6 6 6 6 10 10 10 9 8 9 8 6 4 1 7 8 7 8 8 7 8 9 10 9 10 11 10 11 11 12 12 12 12 12 11 11 11 10 10 10 10 11 12 12 11 11 11 11 11 11 11 11 11 10 9 8 7 5 5 6 7 7 9 8 7 8 10 10 9 11 10 10 9 7 7 7 8 7 7 10
10 9 8 7 9 7 7 5 4 8 8 7 5 8 9 9 7 4 3 3 7 7 7 8 7 8 9 9 9 9 10 10 10 11 11 12 12 12 11 11 11 10 10 9 9 9 10 11 11 11 11 11 10 11 10 10 10 10 9 8 7 6 4 6 6 7 7 7 7 7 7 7 8 9 9 9 9 8 8 7 7 6 11 12 9
10 9 8 8 7 7 6 5 4 5 6 6 5 3 8 8 6 6 5 4 7 6 8 8 8 8 9 9 9 9 9 9 10 10 11 12 12 12 11 10 10 10 10 9 9 8 8 10 11 10 10 10 10 9 10 10 10 9 8 7 6 4 1 3 7 7 7 7 7 8 7 7 8 9 8 8 8 7 6 5 6 11 9 8 9
10 10 9 8 7 9 7 5 4 5 5 4 4 4 5 7 8 7 6 6 7 7 8 9 8 8 10 10 9 9 9 9 10 10 9 10 11 11 11 10 10 9 9 8 8 8 8 9 10 10 10 10 9 9 9 9 9 8 7 6 5 2 6 4 4 6 6 6 6 6 7 7 8 7 8 6 6 6 6 10 11 8 8 7 8
10 10 9 8 8 8 8 7 5 6 6 4 4 3 5 5 7 7 8 7 6 8 8 7 9 9 8 8 9 9 9 9 9 7 7 8 10 11 10 10 9 9 8 8 8 8 8 8 9 9 9 9 9 9 9 9 9 8 7 6 4 3 4 4 5 5 5 5 5 5 6 6 5 7 7 5 5 6 9 9 8 8 7 9 7
9 10 10 9 9 8 8 8 8 6 6 6 5 4 3 4 5 6 7 8 6 7 7 6 8 8 6 6 6 8 8 9 9 8 6 7 9 9 9 10 9 9 8 7 8 8 8 8 8 8 8 9 9 9 9 8 8 7 7 5 3 4 2 7 4 4 4 4 3 4 4 5 6 6 7 8 5 6 7 7 8 8 8 8 7
10 10 10 10 10 9 8 8 9 9 8 6 6 6 4 4 5 5 6 7 7 5 7 6 7 7 5 3 5 6 8 8 8 8 7 7 7 7 8 9 9 8 8 7 7 8 8 8 8 8 8 8 9 9 9 8 7 7 6 5 4 3 2 7 3 3 4 2 3 3 5 7 6 6 7 5 5 6 6 7 7 7 7 7 7
10 11 11 11 11 10 9 8 9 9 9 8 8 7 7 6 6 4 4 7 7 6 7 7 8 8 6 4 4 7 8 8 7 7 7 7 5 6 7 7 9 8 7 7 6 6 7 7 8 8 8 8 9 9 8 7 6 6 5 5 4 3 1 5 2 3 3 2 2 1 5 6 3 5 5 6 5 4 6 8 7 7 7 7 6
9 10 11 11 10 11 10 9 9 10 8 8 8 9 8 8 7 5 5 5 8 6 7 8 8 8 7 6 5 7 7 7 6 7 7 7 6 7 7 8 8 8 8 7 6 5 6 7 7 7 7 7 8 7 6 6 6 5 5 4 4 3 4 1 2 2 1 2 1 2 5 7 3 3 2 4 3 3 6 6 7 6 6 6 6
8 10 11 11 11 11 12 9 10 10 10 9 8 9 9 7 7 6 5 4 6 7 8 8 8 7 8 7 6 9 9 8 7 8 6 7 6 7 8 7 7 7 7 7 5 5 5 6 6 7 7 7 6 6 5 5 5 5 5 4 3 5 1 0 1 1 1 1 2 2 4 5 5 3 5 6 5 4 5 5 5 5 5 6 5
10 10 11 11 11 12 13 12 10 12 10 8 7 7 7 7 10 10 10 8 6 6 7 9 9 9 8 8 8 8 7 8 9 7 9 7 7 7 7 7 6 7 6 7 6 5 4 5 6 6 6 7 6 5 5 5 4 4 4 4 4 3 2 2 2 2 1 1 2 4 3 5 5 6 6 6 5 5 4 3 3 4 4 4 4
11 10 11 13 12 11 13 13 12 11 12 10 7 8 9 8 10 10 9 10 10 9 11 10 10 9 10 10 8 8 8 7 7 6 5 6 6 8 7 6 6 7 7 6 6 5 3 4 5 7 6 3 4 3 4 4 4 4 4 4 5 3 2 3 3 2 2 1 3 5 3 5 5 6 6 6 4 5 4 1 2 3 3 3 4
11 10 10 11 12 12 13 13 13 13 12 10 9 8 9 9 9 9 8 9 10 10 11 10 9 10 9 9 8 8 8 7 6 5 2 5 4 4 5 6 6 7 8 6 6 5 8 7 6 4 3 4 4 4 4 4 4 5 5 4 4 3 4 4 3 3 3 2 3 3 3 5 6 6 8 6 5 4 3 1 2 3 3 3 3
8 8 8 10 13 13 12 13 13 13 13 11 10 9 9 9 9 9 9 9 9 10 10 10 9 9 10 9 9 8 8 7 6 6 7 7 7 7 6 6 7 8 8 7 6 5 4 4 3 3 3 4 4 4 4 4 4 4 4 4 3 3 4 4 4 3 4 3 4 3 4 6 7 7 8 7 5 3 3 4 3 3 3 3 2
7 8 10 9 12 12 13 12 13 13 13 12 11 9 9 9 9 10 9 9 10 10 10 9 9 10 9 9 8 8 8 7 6 7 8 7 7 7 7 7 7 7 8 7 6 5 6 4 4 4 3 3 4 3 4 4 4 4 4 3 4 4 4 4 4 4 4 4 4 6 5 6 8 8 8 9 8 6 5 5 4 4 4 4 3
8 9 9 9 10 12 13 12 13 13 14 13 11 10 10 10 9 9 10 10 8 10 11 10 9 10 9 9 9 8 8 7 6 8 7 7 7 7 6 6 7 7 6 7 6 6 6 5 4 4 3 4 4 4 4 3 3 4 4 3 4 4 4 4 4 5 5 5 4 6 5 6 7 8 8 9 9 8 7 6 5 6 6 5 5
8 10 9 9 10 13 13 14 12 13 13 13 13 11 10 11 10 9 9 10 9 9 9 11 10 10 9 8 9 9 9 8 7 8 8 7 8 7 7 7 7 7 6 7 7 6 6 6 5 4 4 4 5 5 5 5 5 4 5 5 4 5 5 5 5 5 5 5 5 7 7 6 7 8 9 10 10 9 8 7 8 8 7 7 7
10 11 9 10 11 11 13 14 13 14 12 13 13 12 11 11 11 11 11 10 10 9 7 8 10 10 9 9 9 9 9 9 8 8 8 8 8 7 7 7 7 7 5 7 7 7 6 6 6 4 4 5 5 6 5 5 5 5 5 5 5 6 5 5 6 5 6 6 5 5 8 7 7 8 9 10 10 10 10 9 9 9 9 8 8
12 11 11 10 10 12 14 15 14 12 12 12 12 12 12 11 11 12 11 9 10 10 11 9 9 10 11 10 9 9 9 9 8 8 8 9 8 8 7 7 7 7 6 7 7 7 7 6 6 6 5 6 6 6 5 5 6 5 5 6 6 6 6 6 6 6 6 6 6 6 8 8 7 8 9 10 10 11 12 10 10 10 10 9 9
11 12 11 10 9 11 13 13 14 13 11 12 12 12 12 12 12 11 11 11 11 11 10 11 9 9 10 13 11 9 10 10 9 9 9 9 9 8 8 8 8 7 7 8 7 7 7 7 6 7 7 6 6 5 5 6 6 6 6 6 7 6 6 6 6 6 6 6 6 7 5 9 8 8 9 10 11 12 12 10 10 11 11 10 9
13 14 11 9 10 13 13 13 14 13 13 13 12 12 12 12 12 12 12 11 11 11 11 11 12 11 9 10 12 11 10 10 11 10 9 8 7 8 9 8 9 8 7 8 7 7 6 6 7 6 7 7 7 6 6 7 7 7 7 7 7 7 7 7 7 7 7 7 7 7 7 6 10 10 10 10 11 11 12 11 10 11 11 10 10
10 11 11 11 13 12 12 13 13 14 16 15 13 12 11 11 11 12 12 11 11 11 11 10 11 12 11 10 10 12 11 11 11 10 8 10 10 9 9 9 9 8 8 9 9 7 6 6 5 4 5 6 8 8 7 8 7 8 7 8 7 8 8 7 7 7 8 8 8 7 7 7 7 10 11 11 10 11 13 14 12 11 12 12 12
8 8 11 13 11 8 9 9 12 14 15 15 13 12 12 12 11 11 12 12 12 12 12 11 11 12 12 13 11 11 11 11 12 11 11 10 10 10 10 10 9 10 9 8 8 7 7 7 7 6 6 6 7 8 8 8 7 7 8 8 8 8 8 8 8 8 8 8 8 7 7 7 7 7 7 11 12 11 13 14 14 12 13 13 13
8 9 13 13 12 11 9 9 11 14 14 16 15 14 12 12 11 11 11 12 12 12 12 12 11 11 11 12 13 12 11 12 12 12 11 11 10 10 11 10 10 10 9 8 8 8 8 8 7 8 7 7 7 8 9 9 8 8 8 7 8 8 8 9 8 8 8 8 8 8 7 7 7 7 7 7 10 14 12 13 15 14 13 14 14
13 11 10 10 13 13 12 12 12 15 15 16 16 15 14 13 12 11 11 12 12 12 12 12 12 12 11 12 14 14 13 14 13 12 12 11 10 11 11 10 11 10 10 9 9 9 9 8 8 9 9 9 8 9 8 9 10 10 9 7 7 7 8 8 9 9 8 8 8 8 8 8 8 8 8 8 8 9 15 14 14 15 15 15 15
12 11 11 11 12 14 13 15 15 16 15 15 16 16 14 14 13 13 13 12 12 12 12 12 12 12 12 12 14 14 14 15 15 14 13 14 12 12 10 11 10 10 10 10 10 10 9 9 9 9 10 10 10 11 10 10 10 10 10 11 9 8 8 8 9 9 7 9 9 9 9 9 9 9 8 9 9 8 11 15 14 15 14 12 14
11 12 12 12 13 12 12 14 14 14 13 13 14 15 14 13 13 12 12 13 14 12 12 12 12 12 12 13 14 14 15 16 16 16 13 14 11 10 9 10 9 11 10 9 10 10 10 10 10 10 10 10 11 11 11 10 9 9 9 10 11 9 8 8 8 8 8 9 9 10 9 9 9 9 9 9 10 9 8 11 15 15 14 13 13
10 12 12 12 11 11 11 13 13 13 13 13 13 14 14 14 13 13 13 15 13 13 13 13 12 13 13 14 15 14 14 16 16 16 14 13 12 13 13 11 9 10 9 9 9 10 10 10 11 11 11 11 11 11 10 9 9 9 9 10 11 12 11 10 9 8 9 10 10 9 8 9 9 9 9 9 9 9 9 8 7 8 10 15 14
12 11 13 13 13 12 11 11 13 13 12 11 11 12 13 13 14 13 14 14 14 13 13 13 13 13 14 14 14 14 15 15 16 16 15 11 12 12 13 13 13 12 12 13 13 11 12 12 14 12 13 10 10 10 9 8 8 9 10 11 12 12 13 12 13 12 10 10 9 8 9 9 10 10 10 9 9 9 9 8 8 8 8 12 18
12 13 13 14 14 13 12 15 13 13 12 12 12 13 13 14 14 16 16 14 14 15 14 14 14 14 15 15 15 14 15 15 15 16 16 13 12 12 13 14 12 13 13 15 15 15 14 14 13 10 12 12 10 9 9 7 7 8 9 11 11 12 13 13 15 14 12 10 9 9 9 9 10 10 10 9 10 9 9 9 8 8 9 8 11
13 13 15 15 14 15 15 13 10 13 14 14 12 13 13 13 13 14 13 12 13 14 14 15 15 14 15 15 15 15 16 16 15 16 15 16 16 13 14 14 12 13 14 14 14 13 14 15 12 11 10 13 12 9 9 7 8 9 8 9 11 10 12 13 14 14 14 11 10 10 10 10 10 10 9 9 9 10 9 9 9 9 9 9 8
13 13 14 13 13 13 14 13 12 13 14 14 12 13 13 13 12 10 11 10 11 11 11 11 13 14 15 16 15 16 17 16 16 16 15 16 16 14 14 12 13 11 11 14 14 15 14 15 15 12 10 9 11 9 10 12 8 5 6 5 10 7 6 8 10 13 12 11 9 10 9 10 11 10 8 8 9 9 9 9 9 9 9 9 9
11 11 11 13 12 13 13 13 13 13 13 14 14 13 13 12 11 9 9 10 8 10 12 11 14 15 16 16 16 17 17 17 17 16 13 16 16 15 13 13 13 13 13 12 13 13 12 12 13 14 13 12 10 11 11 12 10 7 5 9 5 3 9 9 6 6 8 9 9 10 8 9 9 10 8 9 9 9 8 8 10 10 9 10 9
11 11 11 11 9 14 14 14 13 14 13 13 15 13 10 10 9 9 9 8 11 8 10 13 15 15 15 17 18 18 17 17 17 17 16 16 16 15 14 14 12 12 12 13 13 13 13 13 14 13 15 14 12 11 11 13 14 13 10 3 4 5 9 5 1 6 7 6 8 8 8 9 8 8 8 9 8 8 8 8 9 9 10 9 10
13 13 11 12 13 12 13 13 12 12 13 15 15 13 12 12 11 11 12 14 14 13 16 16 15 16 18 15 15 16 17 17 17 17 17 14 16 16 15 14 14 12 13 13 13 13 14 15 15 14 15 17 13 12 12 11 14 15 17 14 8 7 4 2 1 5 4 7 5 7 8 8 7 7 7 8 8 8 7 8 9 10 9 9 9
14 11 10 12 14 13 13 13 12 12 12 13 15 13 13 12 16 16 14 14 14 14 14 12 12 12 10 12 13 14 16 17 17 17 17 14 13 15 15 14 14 13 11 12 14 16 13 14 13 14 15 13 15 15 15 11 9 13 15 17 17 13 8 5 7 6 10 5 6 7 7 8 8 8 8 8 9 8 7 8 9 9 9 9 9
11 8 10 11 13 14 13 14 12 12 12 12 14 15 14 14 15 16 14 15 15 14 12 12 11 9 10 11 11 11 13 15 15 16 17 16 14 16 16 15 15 15 11 14 16 15 13 13 14 16 14 14 16 16 15 12 11 10 13 14 15 16 17 16 14 11 9 10 8 5 4 6 7 8 9 9 9 9 9 8 9 9 8 9 9
10 9 11 11 12 13 13 13 14 13 12 14 14 15 15 14 14 13 14 14 14 13 9 8 9 10 11 10 11 11 11 14 15 16 17 18 13 15 17 16 16 15 12 15 15 15 17 17 15 15 16 15 14 15 13 13 13 12 10 12 15 15 14 14 14 12 13 11 12 13 8 3 5 7 8 9 8 8 9 9 8 9 8 8 9
9 8 10 10 10 10 12 14 15 12 12 14 15 16 17 15 14 15 17 14 12 11 10 11 10 10 11 12 11 11 11 11 14 16 16 17 17 15 16 19 17 16 11 16 16 15 16 18 17 16 15 16 15 14 15 14 13 14 14 11 11 12 12 11 12 11 13 16 14 9 10 8 8 9 10 9 10 9 8 8 8 8 8 8 8
6 8 9 9 9 11 12 14 16 12 13 14 15 17 16 16 16 16 17 17 14 12 11 13 11 11 11 11 11 10 10 11 11 12 15 17 17 15 16 17 17 15 14 17 17 16 15 16 16 17 15 17 15 16 14 16 14 14 15 13 13 14 16 15 14 14 13 11 13 15 14 12 10 9 6 9 9 10 9 8 8 8 8 8 8
Wind_Direction
164 160 153 130 294 182 152 155 152 151 144 138 130 119 108 107 98 90 91 91 124 109 103 108 103 103 105 107 101 99 100 100 103 107 110 112 112 112 109 103 102 99 93 91 90 89 87 87 88 89 88 87 87 87 88 89 87 81 85 86 76 60 62 58 58 70 80 82 83 82 80 79 81 81 80 78 74 63 50 63 69 69 69 68 66
155 161 153 149 270 185 171 146 170 169 157 138 132 120 111 99 100 93 95 101 80 108 105 106 108 112 112 110 109 106 106 105 107 109 113 115 113 107 105 105 100 96 96 93 90 89 89 88 90 92 92 90 89 90 91 91 92 94 89 82 78 71 65 62 60 56 66 80 78 81 81 80 79 80 79 75 73 71 65 62 61 72 70 67 64
146 154 150 143 185 180 176 162 168 143 126 115 133 118 115 116 101 97 97 137 122 115 124 118 118 117 112 111 110 113 112 112 111 109 113 113 111 108 103 101 101 102 96 93 90 87 88 90 92 94 93 92 93 92 89 91 95 92 88 83 79 74 68 66 64 58 57 77 86 80 77 74 72 71 69 71 69 69 71 77 73 69 74 72 68
144 152 153 134 140 184 175 141 147 143 166 141 135 130 119 132 124 120 135 135 124 94 91 105 100 107 113 117 117 117 117 119 118 115 119 111 111 114 111 104 102 98 95 93 90 89 90 93 93 93 92 92 90 89 91 93 96 95 94 91 80 74 71 68 64 60 52 46 59 97 86 76 72 74 73 68 65 62 63 70 69 69 72 71 68
146 152 153 151 157 159 212 138 148 158 157 104 101 143 148 160 132 128 142 144 134 110 122 111 118 119 118 116 115 115 116 115 115 117 122 116 114 111 106 103 99 100 99 95 92 91 92 93 95 94 93 92 94 97 97 97 95 95 94 86 78 73 71 67 64 62 55 30 308 89 81 82 78 75 79 80 69 62 64 67 69 69 69 68 66
150 156 159 155 154 156 146 152 162 169 157 140 148 167 156 164 138 131 140 143 140 119 118 114 118 116 113 113 112 111 115 118 119 118 116 117 120 109 106 104 102 104 102 97 95 96 96 97 98 98 97 98 99 99 98 95 95 95 91 84 80 75 69 65 62 62 44 230 113 87 74 77 77 79 80 77 78 68 71 70 69 70 69 65 66
153 160 157 158 158 156 150 160 178 162 153 149 153 159 158 172 143 137 152 155 133 135 116 121 122 116 114 113 114 114 115 120 118 120 120 111 109 108 104 102 103 103 104 104 102 100 99 99 100 101 101 101 102 102 100 97 97 95 91 88 83 78 71 63 52 28 325 83 67 76 77 77 79 78 76 76 75 73 70 69 67 67 70 70 69
153 162 162 158 164 144 160 161 181 157 159 151 156 158 167 163 142 154 159 139 152 142 122 141 127 115 116 117 117 118 120 121 123 121 119 117 115 111 106 103 102 101 104 107 108 105 104 102 102 102 102 102 102 104 102 102 100 100 95 90 85 79 73 67 55 18 348 76 69 69 79 73 70 76 72 68 67 72 74 70 69 67 67 73 74
165 165 161 159 152 146 157 168 173 164 163 161 166 154 176 180 150 158 175 150 150 138 128 122 112 124 122 122 122 122 121 123 123 122 119 118 117 112 109 107 105 103 106 110 112 111 108 107 106 104 102 101 103 105 106 105 104 103 99 94 87 81 76 65 32 281 91 75 72 77 82 90 85 82 75 70 69 66 55 70 80 74 66 58 64
171 168 159 162 154 143 160 167 168 165 165 172 163 155 169 182 149 156 168 130 121 121 122 130 138 132 124 123 125 121 125 126 125 122 120 120 118 116 113 110 108 109 108 111 115 115 113 111 110 107 104 104 105 107 109 108 107 106 100 93 89 82 75 72 343 71 77 81 80 75 31 21 84 78 83 83 80 74 68 54 57 57 63 66 68
169 169 164 165 155 143 155 168 179 165 169 172 169 158 164 167 159 154 164 130 130 133 138 139 145 138 131 126 130 126 124 124 123 124 123 120 118 116 116 112 113 113 113 113 116 119 119 115 115 112 110 109 109 110 112 113 110 107 100 92 88 83 69 12 258 75 75 79 86 87 98 94 81 80 84 90 92 81 64 78 85 82 77 70 65
173 170 169 165 137 156 159 180 193 170 173 173 172 163 161 179 170 161 56 152 133 145 148 144 151 145 135 136 132 127 127 131 130 130 126 122 120 119 116 117 116 115 116 118 115 119 124 123 119 120 116 116 118 116 116 116 117 108 101 93 86 80 59 352 69 86 79 79 74 71 73 82 87 93 88 86 95 99 94 79 73 66 74 68 53
175 172 171 165 167 155 175 189 191 175 176 167 174 163 163 176 179 179 167 173 151 159 160 151 160 147 143 140 134 131 134 137 137 135 133 129 124 121 118 119 120 120 120 121 121 119 121 128 128 125 126 124 124 125 122 122 120 114 104 100 92 80 59 306 98 91 89 84 84 83 87 83 74 75 77 76 71 69 67 60 53 52 38 45 58
174 174 174 173 170 156 181 187 195 187 179 178 183 182 166 181 173 181 177 172 167 165 172 158 160 155 151 148 143 140 142 144 143 140 139 137 130 125 121 120 126 125 126 127 127 126 129 131 135 134 133 132 134 133 131 129 125 119 109 100 90 88 128 92 93 88 88 86 78 79 79 80 78 72 75 80 86 74 59 74 56 40 40 37 40
179 177 178 180 176 176 175 194 185 178 186 183 183 190 171 182 176 181 183 187 170 166 174 163 161 165 157 154 151 148 146 149 145 142 142 138 136 130 128 126 126 131 130 130 132 135 136 139 139 141 141 142 140 141 138 134 131 124 116 103 96 60 304 108 85 92 90 89 88 83 80 87 94 77 71 77 84 87 69 51 40 35 35 27 33
182 183 181 189 183 179 184 180 194 175 176 166 177 195 198 187 170 189 185 186 184 171 167 171 159 165 164 160 156 154 152 144 140 138 141 145 141 138 135 133 128 128 131 135 139 143 144 142 142 146 148 148 150 146 145 140 135 130 123 115 92 49 8 331 103 101 99 94 93 85 86 80 70 82 87 75 45 42 30 35 30 31 33 47 44
185 191 189 191 193 191 187 188 183 175 172 171 167 182 194 196 188 196 191 181 192 181 168 175 163 165 169 153 161 155 149 144 148 145 145 148 145 142 141 139 135 128 129 138 146 148 148 146 144 148 155 156 154 154 150 145 140 130 124 122 85 87 33 311 113 95 86 79 64 73 86 91 80 78 61 46 56 46 45 38 33 26 35 53 54
193 196 197 195 197 200 194 193 188 191 194 177 181 181 177 200 193 203 200 186 186 185 166 161 154 165 144 144 159 147 147 149 153 148 154 152 143 147 147 144 145 135 135 140 144 151 151 146 146 151 159 163 161 159 155 148 138 126 122 104 101 85 67 300 111 111 103 109 96 77 74 56 60 56 56 70 58 31 32 55 48 32 37 46 50
196 201 203 202 201 201 200 201 195 196 197 200 200 180 177 189 199 176 211 191 186 178 171 159 149 163 147 144 143 148 149 153 154 151 151 146 143 147 143 148 149 152 147 142 148 145 149 147 147 151 158 163 163 160 155 145 135 126 112 117 113 106 301 249 115 104 150 141 97 70 61 2 44 31 30 45 52 33 19 16 30 33 37 35 39
202 204 204 205 206 204 203 204 202 200 199 203 203 203 179 185 195 175 181 221 183 178 173 156 155 162 153 149 147 149 152 163 159 155 154 147 154 168 140 146 159 161 156 151 149 147 148 152 152 153 151 156 158 151 138 136 140 127 130 128 127 198 207 180 120 142 228 78 342 95 38 351 21 57 32 25 357 16 17 12 17 28 23 29 29
205 207 207 205 207 209 206 205 206 203 202 204 207 210 187 179 188 186 176 209 202 178 171 159 158 160 163 154 157 197 186 184 170 183 148 169 150 139 157 154 165 170 164 159 156 153 149 154 159 156 150 131 102 99 106 127 126 136 137 132 171 224 180 183 215 181 237 159 202 81 20 335 342 329 334 344 342 341 351 355 11 11 21 19 26
204 205 209 208 207 209 210 208 205 206 204 203 207 207 202 196 214 202 206 206 200 187 176 191 182 190 179 170 197 200 203 195 195 176 189 169 160 158 162 164 166 163 156 165 164 158 153 154 165 154 121 109 138 161 138 95 94 124 131 150 217 227 186 217 229 230 213 216 251 73 357 335 325 313 317 310 318 334 338 356 351 358 11 8 10
206 208 209 209 208 208 210 210 208 205 207 207 205 209 212 210 217 211 203 206 207 202 207 204 203 208 193 203 207 207 209 204 204 183 217 177 170 167 163 170 166 158 162 158 158 152 142 107 89 83 87 120 187 182 171 173 149 125 154 202 227 230 212 230 235 245 221 276 263 82 315 310 317 304 295 292 329 329 341 344 310 323 347 351 342
205 203 205 207 208 209 208 210 209 208 207 209 209 209 211 212 214 214 211 206 210 208 215 209 210 211 208 212 213 212 209 213 88 95 99 179 148 176 172 162 169 164 157 170 155 132 107 96 92 97 146 188 196 196 176 183 182 188 199 208 221 212 228 223 233 239 239 172 257 86 285 292 292 284 277 291 302 323 349 320 294 317 319 318 338
206 201 205 206 207 208 207 209 209 209 209 211 211 212 209 211 214 217 216 212 211 211 215 214 212 211 213 217 219 212 210 215 197 193 207 210 206 201 193 201 201 206 165 218 210 174 185 183 172 194 194 195 202 198 193 190 199 198 208 213 215 218 224 232 238 240 240 225 220 165 247 268 273 274 279 289 292 313 302 291 294 289 292 296 320
199 208 208 207 206 208 208 208 208 210 210 213 212 211 210 213 214 216 217 216 215 216 215 212 215 214 215 219 219 215 209 214 209 215 214 215 214 219 217 217 215 221 193 226 218 216 215 199 198 208 204 203 209 204 210 211 203 208 212 208 226 222 229 233 232 235 241 240 213 181 232 254 266 272 275 282 293 289 284 282 279 275 285 293 301
198 209 207 209 205 206 207 209 211 211 213 216 216 214 213 217 216 215 219 219 216 214 221 218 214 214 214 216 218 216 213 213 204 212 217 216 219 221 220 219 222 223 217 223 222 221 224 215 206 210 215 217 212 212 211 222 234 224 223 218 230 237 238 232 232 236 241 239 232 175 227 248 260 270 274 271 277 288 284 278 271 270 277 281 284
203 206 209 206 203 206 206 207 211 212 213 214 218 218 216 218 217 214 218 222 220 217 218 223 220 215 209 217 219 221 215 214 214 212 214 219 224 220 223 222 226 224 219 228 224 224 225 227 224 214 214 226 225 217 216 212 215 225 233 230 228 239 240 240 239 241 245 246 249 200 215 230 250 260 263 262 263 269 278 269 264 268 263 273 285
211 207 205 207 203 203 205 207 208 210 212 212 218 219 220 221 217 218 221 219 223 219 213 215 222 221 208 213 212 225 222 219 216 216 216 219 222 221 222 225 224 228 219 226 228 227 229 227 227 225 218 228 227 223 223 223 222 219 229 232 231 236 243 244 245 240 248 254 250 217 190 222 239 247 252 257 257 262 268 277 279 270 266 268 280
213 209 206 206 202 198 205 206 207 207 207 209 214 216 220 221 220 220 223 214 223 225 221 215 216 213 214 212 211 221 226 223 218 217 217 218 218 220 221 224 222 223 216 223 222 226 228 226 227 231 233 232 235 232 229 228 227 228 228 237 237 241 239 241 242 240 246 247 248 249 180 218 225 239 245 250 251 252 258 266 273 273 265 268 272
213 215 209 204 198 198 204 206 206 206 204 210 212 216 218 221 221 222 223 221 222 224 223 226 219 218 216 209 206 211 224 228 223 218 220 221 217 218 220 219 221 219 218 223 224 221 225 228 227 233 231 231 235 234 231 238 235 231 229 234 241 241 241 241 242 241 244 246 251 253 221 192 221 229 241 242 246 247 250 258 266 266 260 267 267
214 215 209 202 198 201 202 204 206 205 210 211 212 216 217 220 221 221 223 222 220 224 225 223 224 221 213 210 204 208 214 225 227 223 221 218 216 218 221 218 221 218 218 221 222 217 218 225 231 239 247 247 244 241 241 240 240 239 234 230 238 243 243 242 242 239 241 248 250 254 254 235 199 223 230 239 243 245 248 248 262 259 258 260 264
219 214 207 202 203 199 203 204 205 208 212 215 216 217 219 219 219 222 224 223 222 224 226 224 226 225 219 213 212 208 206 217 225 224 218 223 222 219 221 221 221 220 221 219 218 217 213 217 216 209 230 239 246 245 242 246 243 241 237 236 238 240 242 245 243 244 243 242 249 251 255 249 244 197 218 232 234 240 240 243 258 261 256 256 256
212 207 205 208 199 198 198 200 205 209 213 216 217 217 218 219 219 221 223 224 224 225 226 228 226 228 226 222 213 213 211 212 221 223 222 223 223 223 223 221 221 221 220 217 217 217 214 213 219 215 219 226 236 241 244 239 236 236 239 238 235 240 241 239 241 244 244 245 245 248 246 252 245 245 219 207 225 231 238 241 249 253 258 256 256
216 210 208 209 197 198 192 199 199 208 210 215 216 220 219 219 220 222 222 222 224 227 227 227 228 227 227 227 220 213 208 213 216 222 221 221 221 222 221 221 220 221 219 216 219 218 215 217 217 219 223 225 229 237 242 247 247 242 239 239 239 237 238 241 241 242 239 243 245 244 243 244 246 245 239 240 204 221 229 236 240 245 250 253 251
219 218 216 205 207 202 196 201 197 204 209 212 215 217 219 219 220 220 224 222 224 227 227 226 227 227 226 229 224 221 216 215 218 217 225 222 221 222 222 218 216 219 220 216 216 220 218 218 218 218 224 227 228 232 232 241 247 250 253 253 250 245 243 242 240 239 239 239 239 239 239 242 241 241 242 242 245 215 211 225 233 240 241 246 249
221 218 215 205 208 206 202 205 206 204 207 208 214 217 218 220 221 222 223 224 224 227 227 227 226 226 226 226 226 225 222 222 219 219 223 227 226 225 224 220 215 215 216 215 216 220 219 219 223 218 220 230 231 236 237 238 242 246 250 253 254 248 246 248 244 242 238 238 240 239 240 242 238 236 238 241 240 244 198 214 225 233 241 244 241
224 222 218 212 210 206 203 204 210 209 205 205 208 217 219 220 223 226 224 225 226 229 229 226 226 225 225 227 225 225 226 225 224 221 224 228 229 228 224 218 214 218 213 212 219 218 220 220 223 220 217 226 232 232 235 236 240 245 247 248 251 249 248 248 249 245 240 239 238 237 238 240 236 230 233 235 237 236 238 201 218 229 235 236 236
226 221 218 219 214 208 203 203 207 207 205 203 202 215 220 223 226 227 227 228 229 228 227 229 228 227 228 226 225 226 225 225 223 222 224 224 226 229 229 221 212 219 211 213 217 218 217 218 222 226 223 225 228 229 233 237 239 242 248 251 253 253 254 249 251 247 240 237 240 240 239 238 239 231 230 230 230 234 228 236 212 217 223 221 228
224 223 219 214 213 211 206 208 206 205 201 202 199 209 215 218 220 223 228 227 227 227 227 230 229 230 229 226 225 226 227 223 222 220 222 220 223 224 226 225 221 216 219 221 223 221 218 217 222 223 226 222 223 231 229 234 244 251 255 258 258 261 254 253 253 249 247 240 235 233 235 236 233 232 228 226 231 226 226 223 227 223 227 207 213
226 222 219 215 211 210 206 213 205 196 197 197 201 201 207 214 216 219 223 221 222 224 226 227 228 228 230 227 226 226 227 226 222 219 222 218 221 225 224 226 222 218 219 223 222 223 220 224 228 220 224 230 226 216 222 220 241 255 249 254 258 254 251 247 248 249 243 237 232 231 232 232 231 229 225 224 224 221 221 219 222 225 226 234 209
228 218 218 214 209 212 215 216 200 198 202 202 200 201 204 202 202 210 213 213 216 217 221 224 226 229 228 227 226 226 225 225 220 220 220 222 222 223 222 223 220 220 222 221 220 220 218 221 222 230 217 228 235 217 207 172 232 240 258 267 269 260 243 234 233 236 236 233 231 228 229 229 230 229 225 223 220 220 215 219 219 221 225 224 222
232 216 216 213 211 212 218 215 205 200 205 205 202 206 203 206 205 208 203 212 217 217 220 222 226 225 224 225 224 224 224 224 222 217 218 221 224 222 221 220 220 217 215 218 218 218 217 217 219 225 229 220 237 230 209 189 228 216 239 276 271 279 229 218 232 234 227 231 225 227 228 233 235 229 228 225 227 219 216 214 217 217 220 221 222
226 226 216 212 212 215 216 210 210 208 207 204 206 210 207 208 212 216 210 214 215 218 228 227 229 226 226 222 222 223 223 224 222 219 213 221 221 221 219 218 219 218 219 220 215 214 209 213 218 220 224 237 221 230 216 206 212 201 223 219 252 294 282 250 217 210 217 222 222 228 224 233 230 227 225 231 232 224 217 210 212 218 219 222 222
221 223 216 208 210 216 214 209 211 210 209 206 203 205 205 206 210 216 225 227 235 229 228 232 227 225 225 223 223 222 224 224 223 221 218 220 220 221 221 220 218 217 221 226 222 216 213 218 219 217 215 224 232 230 224 219 218 217 228 200 213 231 239 262 128 242 173 201 218 221 226 227 228 222 221 231 229 228 220 212 213 218 221 221 222
229 225 217 217 216 219 214 210 211 212 212 209 202 197 203 203 201 206 214 222 226 220 222 219 212 215 218 220 224 221 220 223 223 223 222 216 220 222 223 222 220 219 221 225 227 222 213 213 215 216 219 220 228 234 233 209 218 222 228 238 247 267 295 109 70 259 153 219 187 200 220 224 233 223 224 225 225 223 218 220 215 218 218 219 221
230 222 213 221 221 222 216 210 209 212 211 208 197 193 203 208 209 211 214 213 216 221 221 220 215 215 214 214 218 217 221 221 223 223 224 216 216 223 223 224 225 224 220 223 226 222 215 212 212 213 218 215 217 231 233 219 201 221 222 233 245 252 261 273 258 282 275 206 196 196 215 216 220 227 225 229 229 225 216 217 216 217 217 218 220
225 209 219 222 225 224 215 212 211 211 207 200 195 195 203 208 211 214 216 218 216 223 214 216 214 212 209 210 208 212 214 221 223 224 223 222 215 222 222 223 225 226 220 223 228 225 222 220 209 213 214 214 214 221 229 227 200 219 216 225 234 242 247 249 252 260 277 287 265 199 212 204 209 223 221 227 229 225 222 212 216 215 218 218 220
225 210 217 218 218 221 219 216 216 213 211 200 199 201 205 210 211 214 219 223 225 228 223 213 210 207 216 210 210 211 209 212 220 223 222 222 214 218 221 222 224 226 221 226 229 227 225 224 217 212 214 216 216 220 226 229 220 221 201 216 226 233 237 238 245 244 247 254 258 258 247 169 251 229 215 225 231 229 222 219 213 215 216 220 220
229 213 222 216 217 216 219 218 221 216 211 205 201 206 206 208 215 217 219 223 218 224 223 226 216 209 218 217 217 215 215 213 213 219 222 222 224 217 221 224 225 227 219 225 229 228 227 227 224 219 215 217 220 219 223 227 228 231 226 211 212 223 230 232 229 231 239 238 251 250 255 235 225 224 202 207 219 226 223 220 219 214 218 223 223
221 225 224 217 217 217 221 221 223 219 213 209 204 209 207 208 217 219 219 222 217 217 220 225 224 220 221 219 217 217 214 216 211 210 213 220 222 219 219 222 224 224 222 226 228 229 228 228 227 226 220 218 219 221 221 227 230 232 229 222 218 216 218 223 223 223 222 231 238 247 257 257 265 275 219 198 212 221 223 215 219 216 218 223 226